Regional Weather Roundup
Issued by NWS

Home | Current Version | Previous Version | Text Only | Print | Product List | Glossary Off
Versions: 1 2 3 4 5 6 7 8 9 10 11 12 13 14 15 16 17 18 19 20 21 22 23 24 25 26 27 28 29 30 31 32 33 34 35 36 37 38 39 40 41 42 43 44 45 46 47 48 49 50

000
ASUS43 KLSX 301807
RWRMO

WEATHER SUMMARY FOR MISSOURI
NATIONAL WEATHER SERVICE SPRINGFIELD MO
100 PM CDT TUE JUN 30 2015

NOTE: "FAIR" INDICATES FEW OR NO CLOUDS BELOW 12,000 FEET WITH NO
       SIGNIFICANT WEATHER AND/OR OBSTRUCTIONS TO VISIBILITY.
       CURRENT SKY AND/OR WEATHER CONDITIONS ARE NOT AVAILABLE FOR
       CHILLICOTHE AND FARMINGTON.

MOZ001>031-035>038-043-044-053-054-301900-
...NORTHERN AND WESTERN MISSOURI...

CITY           SKY/WX    TMP DP  RH WIND       PRES   REMARKS
KANSAS CTY INT CLOUDY    84  67  56 N6        29.95F
6HR MIN TEMP:  67; 6HR MAX TEMP:  85;

KANSAS C DTWN  PTSUNNY   86  66  51 N7        29.93
6HR MIN TEMP:  71; 6HR MAX TEMP:  86;

LEE`S SUMMIT   MOSUNNY   85  66  53 NW8       29.95S
6HR MIN TEMP:  67; 6HR MAX TEMP:  85;

ST JOSEPH      CLOUDY    84  66  54 N5        29.93S
6HR MIN TEMP:  65; 6HR MAX TEMP:  85;

CHILLICOTHE      N/A     79  68  69 CALM      29.93F
6HR MIN TEMP:  66; 6HR MAX TEMP:  80;

KIRKSVILLE     SUNNY     79  66  64 W9        29.92S
6HR MIN TEMP:  66; 6HR MAX TEMP:  79; 6HR PCP: TRACE;


$$
MOZ066>068-077>081-088>096-101>105-301900-
...SOUTHWEST MISSOURI...

CITY           SKY/WX    TMP DP  RH WIND       PRES   REMARKS
SPRINGFIELD    PTSUNNY   81  67  62 W10       29.99S
6HR MIN TEMP:  68; 6HR MAX TEMP:  82;

JOPLIN         SUNNY     85  69  58 W6        29.98F
6HR MIN TEMP:  67; 6HR MAX TEMP:  86;


$$
MOZ032>034-039>042-045>050-055>058-069>072-301900-
...CENTRAL MISSOURI...

CITY           SKY/WX    TMP DP  RH WIND       PRES   REMARKS
COLUMBIA       SUNNY     82  67  60 W9        29.92F
6HR MIN TEMP:  69; 6HR MAX TEMP:  82;

JEFFERSON CITY SUNNY     83  67  58 NW5       29.91S
6HR MIN TEMP:  67; 6HR MAX TEMP:  83;

ROLLA          SUNNY     80  67  64 W9        29.93F
6HR MIN TEMP:  66; 6HR MAX TEMP:  80;

SEDALIA        PTSUNNY   83  68  60 NW6       29.94F
6HR MIN TEMP:  70; 6HR MAX TEMP:  85;

WHITEMAN AFB   MOSUNNY   82  68  62 VRB6      29.93S
WARRENSBURG    PTSUNNY   81  66  61 W5        29.94R
OSAGE BEACH    SUNNY     82  68  61 W5        29.94S

$$
MOZ051-052-059>065-301900-
...EAST CENTRAL MISSOURI...

CITY           SKY/WX    TMP DP  RH WIND       PRES   REMARKS
ST LOUIS INTL  MOSUNNY   84  67  56 SW10      29.90F
6HR MIN TEMP:  72; 6HR MAX TEMP:  84;

SPIRIT OF STL  CLOUDY    81  68  64 SW8       29.89F
6HR MIN TEMP:  68; 6HR MAX TEMP:  81;

ST CHARLES     SUNNY     81  68  64 W8        29.87F
6HR MIN TEMP:  71; 6HR MAX TEMP:  81;


$$
MOZ072>076-082>087-097>100-106>115-301900-
...SOUTH CENTRAL AND SOUTHEAST MISSOURI...

CITY           SKY/WX    TMP DP  RH WIND       PRES   REMARKS
CAPE GIRARDEAU SUNNY     85  65  51 W9        29.91F
6HR MIN TEMP:  71; 6HR MAX TEMP:  85;

FARMINGTON     SUNNY     81  66  61 SW7       29.97S
6HR MIN TEMP:  68; 6HR MAX TEMP:  81;

POPLAR BLUFF   SUNNY     85  67  54 W7        29.92
6HR MIN TEMP:  70; 6HR MAX TEMP:  85;

WEST PLAINS    SUNNY     82  68  62 W6        29.99F
6HR MIN TEMP:  67; 6HR MAX TEMP:  82;


$$


USA.gov is the U.S. government's official web portal to all federal, state and local government web resources and services.